Météo par heure à La-Rioja

Ce jour, 1 Octobre, Jeudi

Heure Température Précipitation Vent Pression Humidité
00:00 +24°C° 0 mm 3 m/s 708 mmHg 23%
01:00 +22°C° 0 mm 3 m/s 708 mmHg 26%
02:00 +20°C° 0 mm 3 m/s 708 mmHg 30%
03:00 +20°C° 0 mm 3 m/s 709 mmHg 32%
04:00 +19°C° 0 mm 3 m/s 709 mmHg 35%
05:00 +18°C° 0 mm 3 m/s 710 mmHg 37%
06:00 +19°C° 0 mm 3 m/s 710 mmHg 36%
07:00 +20°C° 0 mm 4 m/s 711 mmHg 35%
08:00 +21°C° 0 mm 5 m/s 712 mmHg 34%
09:00 +22°C° 0 mm 4 m/s 712 mmHg 31%
10:00 +23°C° 0 mm 4 m/s 712 mmHg 28%
11:00 +26°C° 0 mm 4 m/s 711 mmHg 25%
12:00 +27°C° 0 mm 4 m/s 710 mmHg 24%
13:00 +28°C° 0 mm 3 m/s 709 mmHg 22%
14:00 +29°C° 0 mm 3 m/s 708 mmHg 21%
15:00 +29°C° 0 mm 3 m/s 708 mmHg 21%
16:00 +29°C° 0 mm 3 m/s 708 mmHg 21%
17:00 +29°C° 0 mm 4 m/s 708 mmHg 21%
18:00 +27°C° 0 mm 3 m/s 709 mmHg 26%
19:00 +24°C° 0 mm 3 m/s 710 mmHg 30%
20:00 +20°C° 0 mm 2 m/s 711 mmHg 35%
21:00 +19°C° 0 mm 2 m/s 711 mmHg 36%
22:00 +18°C° 0 mm 2 m/s 712 mmHg 38%
23:00 +17°C° 0 mm 3 m/s 712 mmHg 39%

Demain, 2 Octobre, Vendredi

Heure Température Précipitation Vent Pression Humidité
00:00 +16°C° 0 mm 2 m/s 712 mmHg 42%
01:00 +15°C° 0 mm 2 m/s 712 mmHg 45%
02:00 +14°C° 0 mm 2 m/s 712 mmHg 48%
03:00 +14°C° 0 mm 2 m/s 713 mmHg 49%
04:00 +13°C° 0 mm 2 m/s 713 mmHg 50%
05:00 +13°C° 0 mm 2 m/s 714 mmHg 50%
06:00 +13°C° 0 mm 3 m/s 714 mmHg 46%
07:00 +16°C° 0 mm 3 m/s 715 mmHg 41%
08:00 +17°C° 0 mm 3 m/s 715 mmHg 37%
09:00 +19°C° 0 mm 3 m/s 715 mmHg 36%
10:00 +20°C° 0 mm 3 m/s 715 mmHg 35%
11:00 +22°C° 0 mm 3 m/s 715 mmHg 35%
12:00 +24°C° 0 mm 3 m/s 714 mmHg 33%
13:00 +25°C° 0 mm 4 m/s 714 mmHg 32%
14:00 +26°C° 0 mm 4 m/s 713 mmHg 31%
15:00 +26°C° 0 mm 5 m/s 713 mmHg 30%
16:00 +26°C° 0 mm 6 m/s 713 mmHg 29%
17:00 +27°C° 0 mm 7 m/s 713 mmHg 28%
18:00 +23°C° 0 mm 5 m/s 714 mmHg 35%
19:00 +21°C° 0 mm 4 m/s 715 mmHg 42%
20:00 +19°C° 0 mm 3 m/s 716 mmHg 49%
21:00 +19°C° 0 mm 3 m/s 717 mmHg 50%
22:00 +18°C° 0 mm 4 m/s 718 mmHg 52%
23:00 +17°C° 0 mm 4 m/s 719 mmHg 53%

Après-demain, 3 Octobre, Samedi

Heure Température Précipitation Vent Pression Humidité
00:00 +17°C° 0 mm 4 m/s 719 mmHg 56%
01:00 +15°C° 0 mm 4 m/s 719 mmHg 60%
02:00 +14°C° 0 mm 4 m/s 719 mmHg 63%
03:00 +14°C° 0 mm 4 m/s 719 mmHg 65%
04:00 +14°C° 0 mm 3 m/s 719 mmHg 68%
05:00 +13°C° 0 mm 3 m/s 719 mmHg 70%
06:00 +13°C° 0 mm 3 m/s 719 mmHg 70%
07:00 +13°C° 0 mm 3 m/s 720 mmHg 71%
08:00 +12°C° 0 mm 3 m/s 720 mmHg 71%
09:00 +13°C° 0 mm 3 m/s 720 mmHg 69%
10:00 +13°C° 0 mm 3 m/s 719 mmHg 67%
11:00 +14°C° 0 mm 2 m/s 719 mmHg 65%
12:00 +16°C° 0 mm 2 m/s 718 mmHg 60%
13:00 +17°C° 0 mm 2 m/s 717 mmHg 56%
14:00 +18°C° 0 mm 2 m/s 716 mmHg 51%
15:00 +18°C° 0 mm 3 m/s 716 mmHg 50%
16:00 +17°C° 0 mm 5 m/s 715 mmHg 49%
17:00 +16°C° 0 mm 6 m/s 715 mmHg 49%
18:00 +14°C° 0 mm 5 m/s 715 mmHg 55%
19:00 +12°C° 0 mm 3 m/s 716 mmHg 61%
20:00 +10°C° 0 mm 2 m/s 716 mmHg 66%
21:00 +9°C° 0 mm 2 m/s 717 mmHg 69%
22:00 +8°C° 0 mm 2 m/s 717 mmHg 72%
23:00 +7°C° 0 mm 2 m/s 717 mmHg 74%

4 Octobre, Dimanche

Heure Température Précipitation Vent Pression Humidité
00:00 +7°C° 0 mm 2 m/s 717 mmHg 76%
01:00 +7°C° 0 mm 1 m/s 716 mmHg 78%
02:00 +7°C° 0 mm 1 m/s 716 mmHg 80%
03:00 +6°C° 0 mm 1 m/s 716 mmHg 82%
04:00 +6°C° 0 mm 1 m/s 715 mmHg 84%
05:00 +6°C° 0 mm 1 m/s 715 mmHg 85%
06:00 +7°C° 0 mm 1 m/s 715 mmHg 79%
07:00 +9°C° 0 mm 1 m/s 715 mmHg 72%
08:00 +9°C° 0 mm 2 m/s 715 mmHg 66%
09:00 +12°C° 0 mm 2 m/s 714 mmHg 59%
10:00 +15°C° 0 mm 2 m/s 713 mmHg 52%
11:00 +17°C° 0 mm 2 m/s 713 mmHg 45%
12:00 +18°C° 0 mm 2 m/s 712 mmHg 42%
13:00 +19°C° 0 mm 3 m/s 711 mmHg 38%
14:00 +21°C° 0 mm 3 m/s 711 mmHg 35%
15:00 +21°C° 0 mm 3 m/s 711 mmHg 35%
16:00 +21°C° 0 mm 3 m/s 711 mmHg 34%
17:00 +22°C° 0 mm 3 m/s 711 mmHg 34%
18:00 +19°C° 0 mm 3 m/s 712 mmHg 44%
19:00 +17°C° 0 mm 3 m/s 714 mmHg 54%
20:00 +13°C° 0 mm 3 m/s 715 mmHg 63%
21:00 +14°C° 0 mm 2 m/s 716 mmHg 67%
22:00 +13°C° 0 mm 2 m/s 717 mmHg 71%
23:00 +13°C° 0 mm 1 m/s 718 mmHg 75%

5 Octobre, Lundi

Heure Température Précipitation Vent Pression Humidité
00:00 +12°C° 0 mm 2 m/s 718 mmHg 77%
01:00 +10°C° 0 mm 2 m/s 718 mmHg 79%
02:00 +10°C° 0 mm 2 m/s 718 mmHg 81%
03:00 +9°C° 0 mm 2 m/s 718 mmHg 80%
04:00 +10°C° 0 mm 1 m/s 718 mmHg 79%
05:00 +10°C° 0 mm 1 m/s 717 mmHg 79%
06:00 +12°C° 0 mm 1 m/s 718 mmHg 70%
07:00 +14°C° 0 mm 2 m/s 718 mmHg 62%
08:00 +16°C° 0 mm 2 m/s 718 mmHg 54%
09:00 +17°C° 0 mm 2 m/s 718 mmHg 49%
10:00 +19°C° 0 mm 2 m/s 717 mmHg 45%
11:00 +20°C° 0 mm 2 m/s 716 mmHg 40%
12:00 +21°C° 0 mm 3 m/s 715 mmHg 37%
13:00 +24°C° 0 mm 3 m/s 714 mmHg 34%
14:00 +25°C° 0 mm 3 m/s 713 mmHg 31%
15:00 +25°C° 0 mm 3 m/s 712 mmHg 31%
16:00 +26°C° 0 mm 3 m/s 712 mmHg 30%
17:00 +26°C° 0 mm 3 m/s 711 mmHg 30%
18:00 +22°C° 0 mm 3 m/s 711 mmHg 37%
19:00 +20°C° 0 mm 2 m/s 711 mmHg 44%
20:00 +17°C° 0 mm 2 m/s 711 mmHg 51%
21:00 +16°C° 0 mm 2 m/s 711 mmHg 53%
22:00 +16°C° 0 mm 1 m/s 711 mmHg 56%
23:00 +15°C° 0 mm 1 m/s 711 mmHg 58%

6 Octobre, Mardi

Heure Température Précipitation Vent Pression Humidité
00:00 +14°C° 0 mm 1 m/s 711 mmHg 62%
01:00 +14°C° 0 mm 1 m/s 710 mmHg 65%
02:00 +13°C° 0 mm 1 m/s 710 mmHg 69%
03:00 +13°C° 0 mm 1 m/s 710 mmHg 67%
04:00 +13°C° 0 mm 1 m/s 710 mmHg 66%
05:00 +13°C° 0 mm 1 m/s 710 mmHg 65%
06:00 +15°C° 0 mm 2 m/s 710 mmHg 56%
07:00 +17°C° 0 mm 2 m/s 711 mmHg 47%
08:00 +19°C° 0 mm 2 m/s 711 mmHg 38%
09:00 +21°C° 0 mm 2 m/s 711 mmHg 35%
10:00 +24°C° 0 mm 2 m/s 710 mmHg 32%
11:00 +26°C° 0 mm 2 m/s 710 mmHg 29%
12:00 +28°C° 0 mm 2 m/s 709 mmHg 27%
13:00 +29°C° 0 mm 3 m/s 708 mmHg 24%
14:00 +31°C° 0 mm 3 m/s 707 mmHg 22%
15:00 +31°C° 0 mm 3 m/s 707 mmHg 22%
16:00 +31°C° 0 mm 3 m/s 707 mmHg 22%
17:00 +31°C° 0 mm 3 m/s 707 mmHg 21%
18:00 +29°C° 0 mm 3 m/s 707 mmHg 28%
19:00 +26°C° 0 mm 3 m/s 708 mmHg 35%
20:00 +22°C° 0 mm 3 m/s 709 mmHg 42%
21:00 +21°C° 0 mm 2 m/s 709 mmHg 47%
22:00 +20°C° 0 mm 2 m/s 710 mmHg 52%
23:00 +19°C° 0 mm 2 m/s 710 mmHg 58%
Voir plus

We Need Your Consent

Meteoprog and our Service Providers may store and access personal data such as cookies, device identifiers or other similar technologies on your device and process such data to personalise content and ads, as well as provide social media features and to analyse the traffic.

  • Store and/or access information on your device

    Cookies, device identifiers or other information can be stored or accessed on your device for the purposes indicated above.

  • Personalised ads and content, ad and content measurement, audience insights, and products development

    Ads and content can be personalised based on a profile. More data can be added to better personalise ads and content. Ad and content performance can be measured. Insights about the audience who saw the ads and content can be derived. Such data can be used to develop or improve user’s experience, systems and software.

By clicking ‘I Agree’ you will allow the use of indicated cookies, device identifiers, web beacons or other similar technologies. Your settings can be changed in the browser on your device.

For certain purposes, legitimate interests may be relied on, rather than consent. You can read more about this in our Privacy and Cookie Policy.